Flag for U.S.A. Weather past 2 weeks in Naples, Florida, U.S.A.

Now
79 °F

Clear.


Feels Like: 84 °F
Forecast: 81 / 90 °F
Wind: 3 mph from Southeast

Location: Naples Municipal

Current Time: Jul 28, 2014 at 5:56:04 AM

Latest Report: Jul 28, 2014 at 4:53 AM


Visibility: 10 mi

Pressure: 30.04 "Hg

Humidity: 100%

Dew point: 79 °F

Location of NaplesLocation

Historic Weather in Naples — Graph

°F

Naples temperature yesterday

Maximum temperature yesterday: 89 °F (at 2:53 PM)
Minimum temperature yesterday: 79 °F (at 9:01 AM)
Average temperature yesterday: 83 °F

Past Weeks' High & Low Weather Summary

 TemperatureHumidityPressure
High92 °F (Jul 19, 2:53 PM)100% (Jul 13, 3:53 AM)30.13 "Hg (Jul 13, 3:53 AM)
Low73 °F (Jul 15, 10:58 AM)56% (Jul 19, 2:53 PM)29.94 "Hg (Jul 16, 3:53 AM)
Average83 °F83%30.04 "Hg
* Reported Jul 13 3:53 AM — Jul 28 3:53 AM, Naples, Weather by CustomWeather, © 2014

Note: Actual official high and low records may vary slightly from our data, if they occured in-between our weather recording intervals... More about our weather records

Advertising

Naples weather history for previous 24 hours

 ConditionsComfort  
Time TempWeatherWind HumidityBarometerVisibility
3:53 AM
Jul 28
79 °FClear.No wind100%30.04 "Hg10 mi
2:53 AM80 °FClear.3 mph96%30.06 "Hg10 mi
1:53 AM81 °FClear.No wind94%30.08 "Hg10 mi
12:53 AM81 °FClear.No wind94%30.08 "Hg10 mi
11:53 PM
Jul 27
81 °FClear.No wind91%30.09 "Hg10 mi
10:53 PM84 °FClear.3 mph80%30.08 "Hg10 mi
9:53 PM85 °FClear.No wind83%30.08 "Hg10 mi
8:53 PM85 °FSunny.3 mph83%30.07 "Hg10 mi
7:53 PM87 °FSunny.6 mph75%30.07 "Hg10 mi
6:53 PM87 °FSunny.8 mph75%30.06 "Hg10 mi
5:53 PM88 °FSunny.8 mph75%30.07 "Hg10 mi
4:53 PM88 °FPassing clouds.10 mph75%30.07 "Hg10 mi
3:53 PM89 °FPassing clouds.7 mph72%30.07 "Hg10 mi
2:53 PM89 °FPassing clouds.8 mph72%30.09 "Hg10 mi
1:53 PM86 °FSunny.6 mph80%30.10 "Hg10 mi
12:53 PM83 °FPassing clouds.No wind94%30.11 "Hg10 mi
12:01 PM79 °FPartly sunny.No wind100%30.13 "Hg10 mi
11:53 AM79 °FThundershowers. Partly sunny.No wind100%30.13 "Hg7 mi
10:55 AM80 °FLight rain. Fog.12 mph96%30.13 "Hg1 mi
9:53 AM82 °FPartly sunny.No wind91%30.11 "Hg10 mi
9:01 AM79 °FThundershowers. Broken clouds.5 mph100%30.13 "Hg7 mi
7:53 AM81 °FThundershowers. Fog.No wind94%30.09 "Hg5 mi
6:53 AM80 °FPassing clouds.No wind90%30.08 "Hg10 mi
5:53 AM80 °FMostly cloudy.6 mph96%30.07 "Hg10 mi
Weather by CustomWeather, © 2014

See weather overviewHow to use our weather pages